| time (UTC) | temp F | wind direction | speed MPH | gust MPH | rain 1hr in | rain 24hr in | rain mn in | humidity % | barometer mb |
| 20260508144559 | 66 | 61 | 1.0 | 4.0 | 0.00 | 0.01 | 0.00 | 1017.2 | |
| 20260508143555 | 65 | 49 | 1.0 | 4.0 | 0.00 | 0.01 | 0.00 | 1017.4 | |
| 20260508142551 | 65 | 54 | 1.0 | 6.0 | 0.00 | 0.01 | 0.00 | 1017.5 | |
| 20260508141548 | 68 | 180 | 1.0 | 4.0 | 0.00 | 0.01 | 0.00 | 1017.5 | |
| 20260508140544 | 66 | 45 | 1.0 | 3.0 | 0.00 | 0.01 | 0.00 | 1017.6 | |
| 20260508135541 | 65 | 56 | 1.0 | 6.0 | 0.00 | 0.01 | 0.00 | 1017.8 | |
| 20260508134537 | 64 | 126 | 1.0 | 5.0 | 0.00 | 0.01 | 0.00 | 1017.7 | |
| 20260508133533 | 63 | 13 | 1.0 | 6.0 | 0.00 | 0.01 | 0.00 | 1017.9 | |
| 20260508132529 | 62 | 0 | 1.0 | 4.0 | 0.00 | 0.01 | 0.00 | 1018.0 | |
| 20260508131525 | 62 | 23 | 0.0 | 4.0 | 0.00 | 0.01 | 0.00 | 1018.1 | |
| 20260508130522 | 62 | 0.0 | 4.0 | 0.00 | 0.01 | 0.00 | 1018.1 | ||
| 20260508125518 | 62 | 57 | 1.0 | 4.0 | 0.00 | 0.01 | 0.00 | 1018.2 | |
| 20260508124615 | 62 | 9 | 1.0 | 4.0 | 0.00 | 0.01 | 0.00 | 1018.1 | |
| 20260508123610 | 63 | 19 | 2.0 | 6.0 | 0.00 | 0.01 | 0.00 | 1018.1 | |
| 20260508122607 | 64 | 145 | 0.0 | 4.0 | 0.00 | 0.01 | 0.00 | 1018.2 | |
| 20260508121603 | 63 | 62 | 2.0 | 6.0 | 0.00 | 0.01 | 0.00 | 1018.2 | |
| 20260508120600 | 60 | 225 | 1.0 | 2.0 | 0.00 | 0.01 | 0.00 | 1018.2 | |
| 20260508115556 | 60 | 21 | 0.0 | 3.0 | 0.00 | 0.01 | 0.00 | 1018.2 | |
| 20260508114552 | 62 | 22 | 2.0 | 8.0 | 0.00 | 0.01 | 0.00 | 1018.1 | |
| 20260508113549 | 64 | 32 | 1.0 | 4.0 | 0.00 | 0.01 | 0.00 | 1018.2 | |
| 20260508112544 | 64 | 180 | 1.0 | 4.0 | 0.00 | 0.01 | 0.00 | 1018.0 | |
| 20260508111541 | 62 | 39 | 2.0 | 5.0 | 0.00 | 0.01 | 0.00 | 1018.1 | |
| 20260508110537 | 61 | 0.0 | 2.0 | 0.00 | 0.01 | 0.00 | 1018.2 | ||
| 20260508105533 | 61 | 45 | 0.0 | 3.0 | 0.00 | 0.01 | 0.00 | 1018.2 | |
| 20260508104529 | 62 | 15 | 2.0 | 6.0 | 0.00 | 0.01 | 0.00 | 1018.2 | |
| 20260508103526 | 62 | 121 | 2.0 | 5.0 | 0.00 | 0.01 | 0.00 | 1018.3 | |
| 20260508102522 | 61 | 23 | 0.0 | 3.0 | 0.00 | 0.01 | 0.00 | 1018.3 | |
| 20260508101519 | 62 | 90 | 0.0 | 3.0 | 0.00 | 0.01 | 0.00 | 1018.3 | |
| 20260508100615 | 60 | 45 | 2.0 | 3.0 | 0.00 | 0.01 | 0.00 | 1018.3 | |
| 20260508095611 | 60 | 150 | 1.0 | 4.0 | 0.00 | 0.01 | 0.00 | 1018.4 | |
| 20260508094607 | 60 | 78 | 1.0 | 6.0 | 0.00 | 0.01 | 0.00 | 1018.3 | |
| 20260508093604 | 59 | 86 | 0.0 | 4.0 | 0.00 | 0.01 | 0.00 | 1018.5 | |
| 20260508092601 | 58 | 54 | 2.0 | 6.0 | 0.00 | 0.01 | 0.00 | 1018.5 | |
| 20260508091556 | 58 | 225 | 0.0 | 3.0 | 0.00 | 0.01 | 0.00 | 1018.5 | |
| 20260508090553 | 56 | 0.0 | 2.0 | 0.00 | 0.01 | 0.00 | 1018.6 | ||
| 20260508085549 | 55 | 0 | 1.0 | 4.0 | 0.00 | 0.01 | 0.00 | 1018.7 | |
| 20260508084545 | 55 | 13 | 2.0 | 4.0 | 0.00 | 0.01 | 0.00 | 1018.7 | |
| 20260508083542 | 55 | 0 | 2.0 | 6.0 | 0.00 | 0.01 | 0.00 | 1018.6 | |
| 20260508082538 | 56 | 90 | 0.0 | 3.0 | 0.00 | 0.01 | 0.00 | 1018.5 | |
| 20260508081534 | 55 | 135 | 0.0 | 4.0 | 0.00 | 0.01 | 0.00 | 1018.6 | |
| 20260508080530 | 57 | 0.0 | 1.0 | 0.00 | 0.02 | 0.00 | 1018.5 | ||
| 20260508075527 | 58 | 166 | 1.0 | 4.0 | 0.00 | 0.02 | 0.00 | 1018.4 | |
| 20260508074523 | 58 | 135 | 0.0 | 5.0 | 0.00 | 0.02 | 0.00 | 1018.4 | |
| 20260508073519 | 55 | 68 | 0.0 | 4.0 | 0.00 | 0.02 | 0.00 | 1018.4 | |
| 20260508072517 | 54 | 73 | 0.0 | 4.0 | 0.00 | 0.02 | 0.00 | 1018.4 | |
| 20260508071612 | 54 | 58 | 1.0 | 5.0 | 0.00 | 0.02 | 0.00 | 1018.2 | |
| 20260508070608 | 53 | 135 | 1.0 | 2.0 | 0.00 | 0.02 | 0.00 | 1018.1 | |
| 20260508065605 | 53 | 125 | 0.0 | 5.0 | 0.00 | 0.02 | 0.00 | 1018.1 | |
| 20260508064600 | 53 | 43 | 0.0 | 4.0 | 0.00 | 0.02 | 0.00 | 1018.0 | |
| 20260508063556 | 51 | 124 | 1.0 | 5.0 | 0.00 | 0.02 | 0.00 | 1017.8 | |
| 20260508062553 | 50 | 90 | 0.0 | 4.0 | 0.00 | 0.02 | 0.00 | 1017.8 | |
| 20260508061550 | 50 | 45 | 1.0 | 3.0 | 0.00 | 0.02 | 0.00 | 1017.7 | |
| 20260508060546 | 50 | 0.0 | 0.0 | 0.00 | 0.02 | 0.00 | 1017.7 | ||
| 20260508055541 | 49 | 0.0 | 2.0 | 0.00 | 0.02 | 0.00 | 1017.7 | ||
| 20260508054537 | 49 | 0.0 | 0.0 | 0.00 | 0.02 | 0.00 | 1017.7 | ||
| 20260508053534 | 48 | 0.0 | 0.0 | 0.00 | 0.02 | 0.00 | 1017.5 | ||
| 20260508052530 | 48 | 0.0 | 0.0 | 0.00 | 0.02 | 0.00 | 1017.5 | ||
| 20260508051526 | 48 | 0.0 | 2.0 | 0.00 | 0.02 | 0.00 | 1017.4 | ||
| 20260508050522 | 47 | 0.0 | 0.0 | 0.00 | 0.02 | 0.00 | 1017.3 | ||
| 20260508045518 | 47 | 0.0 | 0.0 | 0.00 | 0.04 | 0.00 | 1017.3 | ||
| 20260508044615 | 47 | 0.0 | 0.0 | 0.00 | 0.04 | 0.00 | 1017.2 | ||
| 20260508043611 | 47 | 0.0 | 0.0 | 0.00 | 0.07 | 0.00 | 1017.2 | ||
| 20260508042608 | 46 | 0.0 | 0.0 | 0.00 | 0.09 | 0.00 | 1017.2 | ||
| 20260508041603 | 46 | 293 | 0.0 | 4.0 | 0.00 | 0.13 | 0.00 | 1017.2 | |
| 20260508040600 | 46 | 0.0 | 0.0 | 0.00 | 0.13 | 0.00 | 1017.1 | ||
| 20260508035556 | 46 | 0.0 | 0.0 | 0.00 | 0.13 | 0.00 | 1017.1 | ||
| 20260508034552 | 46 | 0.0 | 0.0 | 0.00 | 0.14 | 0.00 | 1017.0 | ||
| 20260508033548 | 46 | 0.0 | 2.0 | 0.00 | 0.14 | 0.00 | 1017.0 | ||
| 20260508032544 | 46 | 0.0 | 0.0 | 0.00 | 0.14 | 0.00 | 1016.9 | ||
| 20260508031541 | 46 | 0.0 | 0.0 | 0.00 | 0.14 | 0.00 | 1016.9 | ||
| 20260508030537 | 46 | 0.0 | 2.0 | 0.00 | 0.14 | 0.00 | 1016.9 | ||
| 20260508025534 | 46 | 0.0 | 1.0 | 0.00 | 0.14 | 0.00 | 1017.0 | ||
| 20260508024529 | 46 | 0.0 | 0.0 | 0.00 | 0.14 | 0.00 | 1016.9 | ||
| 20260508023526 | 46 | 0.0 | 0.0 | 0.00 | 0.14 | 0.00 | 1016.9 | ||
| 20260508022523 | 46 | 0.0 | 2.0 | 0.00 | 0.14 | 0.00 | 1016.9 | ||
| 20260508021518 | 47 | 0.0 | 2.0 | 0.00 | 0.15 | 0.00 | 1016.9 | ||
| 20260508020614 | 47 | 0.0 | 0.0 | 0.00 | 0.17 | 0.00 | 1017.0 | ||
| 20260508015611 | 47 | 0.0 | 0.0 | 0.00 | 0.18 | 0.00 | 1017.0 | ||
| 20260508014607 | 47 | 0.0 | 0.0 | 0.00 | 0.20 | 0.00 | 1017.1 | ||
| 20260508013603 | 47 | 0.0 | 1.0 | 0.00 | 0.21 | 0.00 | 1017.0 | ||
| 20260508012559 | 47 | 0.0 | 2.0 | 0.00 | 0.22 | 0.00 | 1016.9 | ||
| 20260508011556 | 47 | 0.0 | 2.0 | 0.00 | 0.24 | 0.00 | 1017.1 | ||
| 20260508010551 | 47 | 0.0 | 0.0 | 0.00 | 0.26 | 0.00 | 1017.1 | ||
| 20260508005548 | 47 | 0.0 | 0.0 | 0.00 | 0.26 | 0.00 | 1017.2 | ||
| 20260508004544 | 47 | 0.0 | 1.0 | 0.00 | 0.27 | 0.00 | 1017.2 | ||
| 20260508003541 | 47 | 0.0 | 0.0 | 0.00 | 0.27 | 0.00 | 1017.2 | ||
| 20260508002537 | 48 | 0.0 | 0.0 | 0.00 | 0.27 | 0.00 | 1017.1 | ||
| 20260508001533 | 48 | 0.0 | 0.0 | 0.00 | 0.27 | 0.00 | 1017.1 | ||
| 20260508000529 | 48 | 0.0 | 0.0 | 0.00 | 0.27 | 0.00 | 1017.2 | ||
| 20260507235526 | 48 | 0.0 | 0.0 | 0.00 | 0.27 | 0.00 | 1017.3 | ||
| 20260507234522 | 48 | 0.0 | 0.0 | 0.00 | 0.27 | 0.00 | 1017.2 | ||
| 20260507233518 | 48 | 0.0 | 0.0 | 0.00 | 0.27 | 0.00 | 1017.2 | ||
| 20260507232615 | 48 | 0.0 | 0.0 | 0.00 | 0.27 | 0.00 | 1017.2 | ||
| 20260507231610 | 48 | 0.0 | 0.0 | 0.00 | 0.27 | 0.00 | 1017.2 | ||
| 20260507230607 | 48 | 0.0 | 0.0 | 0.00 | 0.27 | 0.00 | 1017.2 | ||
| 20260507225603 | 48 | 0.0 | 0.0 | 0.00 | 0.27 | 0.00 | 1017.1 | ||
| 20260507224600 | 48 | 0.0 | 0.0 | 0.00 | 0.27 | 0.00 | 1017.1 | ||
| 20260507223555 | 48 | 0.0 | 2.0 | 0.00 | 0.27 | 0.00 | 1017.1 | ||
| 20260507222551 | 48 | 0.0 | 2.0 | 0.00 | 0.27 | 0.00 | 1017.1 | ||
| 20260507221548 | 48 | 0.0 | 1.0 | 0.00 | 0.27 | 0.00 | 1017.0 | ||
| 20260507220544 | 49 | 0.0 | 0.0 | 0.00 | 0.27 | 0.00 | 1017.0 | ||
| 20260507215541 | 49 | 0.0 | 2.0 | 0.00 | 0.27 | 0.27 | 1017.0 | ||
| 20260507214537 | 49 | 45 | 1.0 | 6.0 | 0.00 | 0.27 | 0.27 | 1016.9 | |
| 20260507213533 | 49 | 40 | 1.0 | 5.0 | 0.00 | 0.27 | 0.27 | 1016.9 | |
| 20260507212530 | 49 | 72 | 1.0 | 4.0 | 0.00 | 0.27 | 0.27 | 1017.0 | |
| 20260507211526 | 49 | 45 | 0.0 | 3.0 | 0.00 | 0.27 | 0.27 | 1017.0 | |
| 20260507210523 | 49 | 0.0 | 1.0 | 0.00 | 0.27 | 0.27 | 1017.0 | ||
| 20260507205519 | 49 | 0.0 | 0.0 | 0.01 | 0.27 | 0.27 | 1016.9 | ||
| 20260507204615 | 49 | 0.0 | 1.0 | 0.01 | 0.27 | 0.27 | 1016.7 | ||
| 20260507203611 | 49 | 0.0 | 0.0 | 0.01 | 0.27 | 0.27 | 1016.7 | ||
| 20260507202607 | 49 | 90 | 0.0 | 3.0 | 0.01 | 0.27 | 0.27 | 1016.7 | |
| 20260507201604 | 49 | 0.0 | 3.0 | 0.01 | 0.27 | 0.27 | 1016.6 | ||
| 20260507200559 | 49 | 0.0 | 2.0 | 0.01 | 0.27 | 0.27 | 1016.5 | ||
| 20260507195556 | 49 | 0.0 | 1.0 | 0.00 | 0.26 | 0.26 | 1016.5 | ||
| 20260507194552 | 50 | 0.0 | 2.0 | 0.00 | 0.26 | 0.26 | 1016.3 | ||
| 20260507193548 | 50 | 45 | 0.0 | 2.0 | 0.00 | 0.26 | 0.26 | 1016.3 | |
| 20260507192544 | 50 | 9 | 1.0 | 3.0 | 0.00 | 0.26 | 0.26 | 1016.1 | |
| 20260507191541 | 50 | 10 | 1.0 | 4.0 | 0.00 | 0.26 | 0.26 | 1015.9 | |
| 20260507190538 | 50 | 0.0 | 0.0 | 0.00 | 0.26 | 0.26 | 1015.7 | ||
| 20260507185534 | 51 | 35 | 1.0 | 5.0 | 0.00 | 0.26 | 0.26 | 1015.5 | |
| 20260507184530 | 51 | 35 | 0.0 | 5.0 | 0.00 | 0.26 | 0.26 | 1015.4 | |
| 20260507183526 | 51 | 0.0 | 0.0 | 0.00 | 0.26 | 0.26 | 1015.2 | ||
| 20260507182523 | 51 | 0.0 | 0.0 | 0.00 | 0.26 | 0.26 | 1015.1 | ||
| 20260507181518 | 51 | 0.0 | 1.0 | 0.00 | 0.26 | 0.26 | 1015.1 | ||
| 20260507180616 | 51 | 0.0 | 2.0 | 0.00 | 0.26 | 0.26 | 1015.0 | ||
| 20260507175611 | 52 | 334 | 0.0 | 3.0 | 0.00 | 0.26 | 0.26 | 1014.8 | |
| 20260507174608 | 52 | 245 | 1.0 | 6.0 | 0.00 | 0.26 | 0.26 | 1014.8 | |
| 20260507173604 | 53 | 0.0 | 2.0 | 0.00 | 0.26 | 0.26 | 1014.8 | ||
| 20260507172600 | 53 | 0.0 | 2.0 | 0.00 | 0.26 | 0.26 | 1014.8 | ||
| 20260507171556 | 53 | 0.0 | 2.0 | 0.00 | 0.26 | 0.26 | 1014.6 | ||
| 20260507170553 | 53 | 0.0 | 0.0 | 0.00 | 0.26 | 0.26 | 1014.6 | ||
| 20260507165550 | 53 | 0.0 | 1.0 | 0.00 | 0.26 | 0.26 | 1014.5 | ||
| 20260507164546 | 54 | 0.0 | 2.0 | 0.00 | 0.26 | 0.26 | 1014.5 | ||
| 20260507163541 | 54 | 0.0 | 2.0 | 0.00 | 0.26 | 0.26 | 1014.4 | ||
| 20260507162538 | 54 | 90 | 0.0 | 4.0 | 0.00 | 0.26 | 0.26 | 1014.3 | |
| 20260507161534 | 54 | 180 | 0.0 | 3.0 | 0.00 | 0.26 | 0.26 | 1014.3 | |
| 20260507160531 | 53 | 0.0 | 0.0 | 0.00 | 0.26 | 0.26 | 1014.2 | ||
| 20260507155526 | 53 | 180 | 1.0 | 4.0 | 0.00 | 0.26 | 0.26 | 1014.2 | |
| 20260507154522 | 53 | 225 | 1.0 | 4.0 | 0.00 | 0.26 | 0.26 | 1014.3 | |
| 20260507153519 | 53 | 225 | 0.0 | 2.0 | 0.00 | 0.26 | 0.26 | 1014.2 | |
| 20260507152616 | 53 | 0.0 | 0.0 | 0.00 | 0.26 | 0.26 | 1014.1 | ||
| 20260507151611 | 53 | 0.0 | 0.0 | 0.00 | 0.26 | 0.26 | 1014.1 | ||
| 20260507150608 | 53 | 225 | 1.0 | 3.0 | 0.00 | 0.26 | 0.26 | 1014.1 | |
| 20260507145603 | 53 | 225 | 1.0 | 3.0 | 0.00 | 0.26 | 0.26 | 1014.1 |